Location: Cassano d�Adda
(45.5333°N, 9.5167°E)
Time: 18:54:36
(UTC+00:00)

Meteor 1-11 Rocket - Pass Details

Date: 08 December 2019
Orbit: 831 x 916 km, 81.2° (Epoch: 26 January)

Event Time Altitude Azimuth Distance (km) Brightness Sun altitude
Rises 16:18:06 0° 353° (N) 3,560 6.8 -6.9°
Reaches altitude 10° 16:20:41 10° 359° (N) 2,617 6.0 -7.3°
Maximum altitude 16:26:30 50° 74° (ENE) 1,154 4.1 -8.2°
Drops below altitude 10° 16:32:14 10° 149° (SSE) 2,592 6.2 -9.2°
Sets 16:34:46 0° 155° (SSE) 3,522 6.9 -9.6°
